Location: Corralito
(10.2667°N, 66.9500°W)
Time: 08:51:33
(UTC+00:00)

GPS 2-15 Rocket1 - Pass Details

Date: 13 December 2023
Orbit: 617 x 666 km, 19.8° (Epoch: 02 March)

Event Time Altitude Azimuth Distance (km) Brightness Sun altitude
Rises 23:49:41 0° 260° (W) 2,969 7.9 -24.0°
Reaches altitude 10° 23:52:07 10° 264° (W) 2,050 6.7 -24.6°
Enters shadow 23:56:34 59° 324° (NW) 745 3.4 -25.6°
